Weather History for Glenwood, MN

Change the Weather History Date:

Wednesday, September 25, 2013

  Actual Average Record
Temperature  
Mean Temperature 60 °F -  
Max Temperature 73 °F 67 °F 83 °F (1967)
Min Temperature 48 °F 41 °F 31 °F (1985)
Degree Days  
Heating Degree Days 4    
Growing Degree Days 10 (Base 50)    
Moisture  
Dew Point 51 °F    
Average Humidity 73    
Maximum Humidity 100    
Minimum Humidity 41    
Precipitation  
Precipitation 0.00 in - - ()
Sea Level Pressure  
Sea Level Pressure 29.90 in    
Wind  
Wind Speed 7 mph (SE)    
Max Wind Speed 20 mph    
Max Gust Speed 23 mph    
Visibility 9 miles    
Events      
Averages and records for this station are not official NWS values.
T = Trace of Precipitation, MM = Missing Value Source: NWS Daily Summary

Daily Weather History Graph

Daily Weather History Graph

Search for Another Location

Airport:

Trip Planner

Search our weather history database for the weather conditions in past years. The results will help you decide how hot, cold, wet, or windy it might be!

Date:

Astronomy

Sep. 25, 2013 Rise Set
Actual Time 7:12 AM CDT 7:12 PM CDT
Civil Twilight 6:42 AM CDT 7:42 PM CDT
Nautical Twilight 6:08 AM CDT 8:16 PM CDT
Astronomical Twilight 5:32 AM CDT 8:51 PM CDT
Moon 11:04 PM CDT (9/25) 1:34 PM CDT (9/25)
Length of Visible Light 12h 59m
Length of Day
12h 00m
Waning Gibbous, 64% of the Moon is Illuminated
Sep 25
Waning Gibbous
Sep 26
Last Quarter
Oct 4
New
Oct 11
First Quarter
Oct 18
Full

Hourly Weather History & Observations

Time (CDT) Temp. Dew Point Humidity Pressure Visibility Wind Dir Wind Speed Gust Speed Precip Events Conditions
12:13 AM 55.4 °F 51.8 °F 88% 29.95 in 10.0 mi SE 3.5 mph - N/A   Clear
12:33 AM 55.4 °F 51.8 °F 88% 29.95 in 10.0 mi SE 4.6 mph - N/A   Clear
12:53 AM 55.4 °F 51.8 °F 88% 29.95 in 10.0 mi SE 4.6 mph - N/A   Clear
1:14 AM 53.6 °F 51.8 °F 94% 29.95 in 10.0 mi ESE 4.6 mph - N/A   Clear
1:33 AM 53.6 °F 51.8 °F 94% 29.95 in 10.0 mi ESE 4.6 mph - N/A   Clear
1:53 AM 53.6 °F 51.8 °F 94% 29.95 in 10.0 mi ESE 4.6 mph - N/A   Clear
2:13 AM 51.8 °F 51.8 °F 100% 29.95 in 10.0 mi ESE 4.6 mph - N/A   Clear
2:33 AM 51.8 °F 50.0 °F 94% 29.94 in 10.0 mi ESE 5.8 mph - N/A   Clear
2:53 AM 51.8 °F 50.0 °F 94% 29.94 in 7.0 mi ESE 4.6 mph - N/A   Clear
3:13 AM 51.8 °F 50.0 °F 94% 29.94 in 7.0 mi ESE 4.6 mph - N/A   Clear
3:33 AM 51.8 °F 51.8 °F 100% 29.94 in 7.0 mi SE 3.5 mph - N/A   Clear
3:53 AM 51.8 °F 51.8 °F 100% 29.94 in 7.0 mi SE 3.5 mph - N/A   Clear
4:13 AM 51.8 °F 51.8 °F 100% 29.94 in 5.0 mi ESE 3.5 mph - N/A   Clear
4:33 AM 51.8 °F 51.8 °F 100% 29.94 in 5.0 mi SSE 3.5 mph - N/A   Clear
4:53 AM 51.8 °F 50.0 °F 94% 29.94 in 7.0 mi Calm Calm - N/A   Clear
5:13 AM 51.8 °F 51.8 °F 100% 29.94 in 4.0 mi Calm Calm - N/A   Clear
5:33 AM 51.8 °F 50.0 °F 94% 29.94 in 4.0 mi East 3.5 mph - N/A   Clear
5:53 AM 50.0 °F 48.2 °F 94% 29.93 in 4.0 mi East 5.8 mph - N/A   Clear
6:13 AM 48.2 °F 46.4 °F 93% 29.93 in 3.0 mi East 4.6 mph - N/A   Clear
6:34 AM 50.0 °F 48.2 °F 94% 29.93 in 3.0 mi East 5.8 mph - N/A   Clear
6:53 AM 48.2 °F 48.2 °F 100% 29.93 in 4.0 mi East 6.9 mph - N/A   Clear
7:13 AM 48.2 °F 48.2 °F 100% 29.93 in 3.0 mi ESE 3.5 mph - N/A   Clear
7:33 AM 48.2 °F 48.2 °F 100% 29.94 in 1.5 mi ESE 3.5 mph - N/A   Clear
7:53 AM 50.0 °F 48.2 °F 94% 29.94 in 2.5 mi SE 3.5 mph - N/A   Clear
8:13 AM 51.8 °F 51.8 °F 100% 29.94 in 4.0 mi SE 4.6 mph - N/A   Clear
8:33 AM 53.6 °F 51.8 °F 94% 29.93 in 5.0 mi SE 4.6 mph - N/A   Clear
8:53 AM 55.4 °F 53.6 °F 94% 29.94 in 7.0 mi SE 4.6 mph - N/A   Clear
9:14 AM 57.2 °F 55.4 °F 94% 29.94 in 10.0 mi SSE 5.8 mph - N/A   Clear
9:33 AM 60.8 °F 55.4 °F 82% 29.94 in 10.0 mi SSE 5.8 mph - N/A   Clear
9:53 AM 62.6 °F 55.4 °F 77% 29.94 in 10.0 mi SE 6.9 mph - N/A   Clear
10:13 AM 64.4 °F 55.4 °F 73% 29.94 in 10.0 mi SSE 8.1 mph - N/A   Clear
10:33 AM 66.2 °F 55.4 °F 68% 29.94 in 10.0 mi SSE 10.4 mph - N/A   Clear
10:54 AM 68.0 °F 55.4 °F 64% 29.93 in 10.0 mi SSE 9.2 mph - N/A   Clear
11:13 AM 69.8 °F 53.6 °F 56% 29.94 in 10.0 mi SSE 12.7 mph - N/A   Clear
11:33 AM 69.8 °F 53.6 °F 56% 29.94 in 10.0 mi SSE 13.8 mph - N/A   Clear
11:53 AM 71.6 °F 53.6 °F 53% 29.94 in 10.0 mi South 15.0 mph 19.6 mph N/A   Clear
12:13 PM 71.6 °F 53.6 °F 53% 29.93 in 10.0 mi SSE 13.8 mph - N/A   Clear
12:34 PM 73.4 °F 51.8 °F 47% 29.93 in 10.0 mi SSE 17.3 mph - N/A   Clear
12:53 PM 71.6 °F 51.8 °F 50% 29.92 in 10.0 mi SSE 17.3 mph 21.9 mph N/A   Clear
1:13 PM 71.6 °F 51.8 °F 50% 29.90 in 10.0 mi SE 17.3 mph - N/A   Clear
1:34 PM 71.6 °F 51.8 °F 50% 29.90 in 10.0 mi SSE 18.4 mph 21.9 mph N/A   Clear
1:53 PM 73.4 °F 51.8 °F 47% 29.89 in 10.0 mi SSE 16.1 mph 21.9 mph N/A   Clear
2:13 PM 73.4 °F 51.8 °F 47% 29.88 in 10.0 mi SE 11.5 mph 18.4 mph N/A   Clear
2:33 PM 73.4 °F 51.8 °F 47% 29.87 in 10.0 mi SSE 15.0 mph 20.7 mph N/A   Clear
2:53 PM 73.4 °F 50.0 °F 44% 29.87 in 10.0 mi SSE 16.1 mph 21.9 mph N/A   Clear
3:13 PM 73.4 °F 50.0 °F 44% 29.86 in 10.0 mi SSE 16.1 mph 21.9 mph N/A   Clear
3:33 PM 73.4 °F 51.8 °F 47% 29.86 in 10.0 mi SSE 16.1 mph 23.0 mph N/A   Clear
3:53 PM 73.4 °F 48.2 °F 41% 29.85 in 10.0 mi SSE 19.6 mph - N/A   Clear
4:14 PM 73.4 °F 48.2 °F 41% 29.84 in 10.0 mi SE 17.3 mph 23.0 mph N/A   Clear
4:33 PM 73.4 °F 48.2 °F 41% 29.83 in 10.0 mi SSE 18.4 mph 23.0 mph N/A   Clear
4:53 PM 73.4 °F 48.2 °F 41% 29.83 in 10.0 mi SE 16.1 mph 23.0 mph N/A   Clear
5:13 PM 73.4 °F 48.2 °F 41% 29.83 in 10.0 mi ESE 17.3 mph 21.9 mph N/A   Clear
5:33 PM 71.6 °F 48.2 °F 43% 29.83 in 10.0 mi SE 16.1 mph 21.9 mph N/A   Clear
5:53 PM 71.6 °F 50.0 °F 46% 29.83 in 10.0 mi SE 13.8 mph 23.0 mph N/A   Clear
6:13 PM 71.6 °F 50.0 °F 46% 29.83 in 10.0 mi SE 10.4 mph - N/A   Clear
6:33 PM 69.8 °F 51.8 °F 53% 29.84 in 10.0 mi ESE 10.4 mph - N/A   Clear
6:54 PM 66.2 °F 51.8 °F 60% 29.83 in 10.0 mi ESE 9.2 mph - N/A   Clear
7:13 PM 64.4 °F 51.8 °F 64% 29.83 in 10.0 mi ESE 10.4 mph 16.1 mph N/A   Clear
7:33 PM 64.4 °F 51.8 °F 64% 29.83 in 10.0 mi ESE 10.4 mph - N/A   Clear
7:53 PM 62.6 °F 51.8 °F 68% 29.83 in 10.0 mi ESE 11.5 mph - N/A   Clear
8:13 PM 62.6 °F 51.8 °F 68% 29.84 in 10.0 mi ESE 10.4 mph - N/A   Clear
8:34 PM 60.8 °F 51.8 °F 72% 29.83 in 10.0 mi ESE 11.5 mph - N/A   Clear
8:53 PM 60.8 °F 51.8 °F 72% 29.83 in 10.0 mi ESE 10.4 mph - N/A   Clear
9:13 PM 59.0 °F 51.8 °F 77% 29.84 in 10.0 mi ESE 9.2 mph - N/A   Clear
9:33 PM 60.8 °F 51.8 °F 72% 29.84 in 10.0 mi ESE 10.4 mph - N/A   Clear
9:53 PM 60.8 °F 51.8 °F 72% 29.85 in 10.0 mi ESE 12.7 mph - N/A   Clear
10:14 PM 60.8 °F 51.8 °F 72% 29.85 in 10.0 mi ESE 13.8 mph 18.4 mph N/A   Clear
10:33 PM 59.0 °F 51.8 °F 77% 29.85 in 10.0 mi ESE 11.5 mph - N/A   Clear
10:53 PM 59.0 °F 51.8 °F 77% 29.86 in 10.0 mi ESE 9.2 mph - N/A   Clear
11:13 PM 57.2 °F 51.8 °F 82% 29.86 in 10.0 mi ESE 9.2 mph - N/A   Clear
11:33 PM 57.2 °F 51.8 °F 82% 29.86 in 10.0 mi ESE 10.4 mph - N/A   Clear
11:54 PM 57.2 °F 51.8 °F 82% 29.86 in 10.0 mi ESE 11.5 mph - N/A   Clear